• MPC Preparation (Info)

  • MPEC 2006-W37 : 2006 WT1

    The following Minor Planet Electronic Circular may be linked-to from your own Web pages, but must not otherwise be redistributed electronically.

    A form allowing access to any MPEC is at the bottom of this page.


    Read MPEC 2006-W36 Read MPEC 2006-W38


    M.P.E.C. 2006-W37                                Issued 2006 Nov. 20, 20:19 UT
    
         The Minor Planet Electronic Circulars contain information on unusual
             minor planets and routine data on comets.  They are published
       on behalf of Commission 20 of the International Astronomical Union by the
              Minor Planet Center, Smithsonian Astrophysical Observatory,
                              Cambridge, MA 02138, U.S.A.
    
                 Prepared using the Tamkin Foundation Computer Network
    
                                  MPC@CFA.HARVARD.EDU
              URL http://cfa-www.harvard.edu/iau/mpc.html  ISSN 1523-6714
    
                                       2006 WT1
    
    Observations:
         K06W01T* C2006 11 19.07927 21 02 10.20 +09 18 28.9          19.0   EW037704
         K06W01T  C2006 11 19.09198 21 02 13.21 +09 17 57.8          19.0   EW037704
         K06W01T  C2006 11 19.10477 21 02 16.25 +09 17 28.1          19.0   EW037704
         K06W01T  C2006 11 19.11780 21 02 19.34 +09 16 54.9          19.3   EW037704
         K06W01T  C2006 11 20.00913 21 06 13.48 +08 39 40.2          18.6 R EW037H36
         K06W01T  C2006 11 20.01170 21 06 14.10 +08 39 34.4          18.4 R EW037H36
         K06W01T  C2006 11 20.01427 21 06 14.67 +08 39 27.3          18.6 R EW037H36
         K06W01T IC2006 11 20.03942 21 06 21.32 +08 38 31.4                 EW037711
         K06W01T  C2006 11 20.04352 21 06 22.37 +08 38 19.2          18.8 R EW037711
         K06W01T  C2006 11 20.04762 21 06 23.36 +08 38 08.1          18.9 R EW037711
         K06W01T  C2006 11 20.04923 21 06 23.98 +08 38 01.7          19.0 R EW037448
         K06W01T  C2006 11 20.05306 21 06 24.98 +08 37 52.1          19.2 R EW037448
         K06W01T  C2006 11 20.05689 21 06 25.89 +08 37 41.4          18.8 R EW037448
         K06W01T  C2006 11 20.08968 21 06 34.34 +08 36 16.5          19.1 V EW037G96
         K06W01T  C2006 11 20.09129 21 06 34.77 +08 36 12.1          19.0 V EW037G96
         K06W01T  C2006 11 20.09288 21 06 35.13 +08 36 08.0          19.1 V EW037G96
         K06W01T  C2006 11 20.09449 21 06 35.56 +08 36 03.7          19.2 V EW037G96
         K06W01T  C2006 11 20.12684 21 06 43.79 +08 34 40.0          19.1 R EW037854
         K06W01T  C2006 11 20.13259 21 06 45.40 +08 34 23.0          18.2 R EW037854
         K06W01T  C2006 11 20.13834 21 06 46.74 +08 34 09.5          19.4 R EW037854
         K06W01T  C2006 11 20.38484 21 07 54.01 +08 24 24.1          18.9 R EW037474
         K06W01T  C2006 11 20.38669 21 07 54.56 +08 24 17.9          19.2 R EW037474
         K06W01T  C2006 11 20.38912 21 07 55.10 +08 24 12.2          18.9 R EW037474
         K06W01T  C2006 11 20.71873 21 09 28.71 +08 08 10.5          19.5 R EW037143
         K06W01T  C2006 11 20.74084 21 09 34.53 +08 07 09.5          19.5 R EW037143
    
    Observer details:
    143 Gnosca.  Observer S. Sposetti.  0.40-m f/4 reflector + CCD.
    448 Desert Moon Observatory.  Observer B. L. Stevens.  0.3-m
        Schmidt-Cassegrain + CCD.
    474 Mount John Observatory, Lake Tekapo.  Observer A. C. Gilmore.  1.0-m f/7.7
        reflector + CCD.
    704 Lincoln Laboratory ETS, New Mexico.  Observers M. Bezpalko, D. Torres,
        R. Kracke, G. Spitz, J. Kistler.  Measurers J. Stuart, S. Scruggs.  1.0-m
        f/2.15 reflector + CCD.
    711 McDonald Observatory.  Observer J. G. Ries.  0.76-m reflector + CCD
        + prime-focus corrector.
    854 Sabino Canyon Observatory, Tucson.  Observer J. E. McGaha.  0.36-m f/10.0
        Schmidt-Cassegrain + CCD.
    G96 Mt. Lemmon Survey.  Observer A. R. Gibbs.  Measurers E. C. Beshore,
        E. J. Christensen, G. J. Garradd, A. R. Gibbs, A. D. Grauer, R. E. Hill,
        R. A. Kowalski, S. M. Larson, R. H. McNaught.  1.5-m reflector + CCD.
    H36 Sandlot Observatory, Scranton.  Observer G. Hug.  0.30-m
        Schmidt-Cassegrain + CCD.
    
    Orbital elements:
    2006 WT1                                            PHA, Earth MOID = 0.0019 AU
    Epoch 2006 Sept. 22.0 TT = JDT 2454000.5                MPC
    M 343.17192              (2000.0)            P               Q
    n   0.25996675     Peri.  170.58599     +0.56097781     -0.79975745
    a   2.4314062      Node   245.00061     +0.74334940     +0.60028641
    e   0.5951961      Incl.   13.64192     +0.36432893     +0.00665234
    P   3.79           H   20.1           G   0.15           U   8
    Residuals in seconds of arc
    061119 704  0.1-  0.5-    061120 711  0.8-  0.4+    061120 854  2.1+  1.0-
    061119 704  0.0   0.6-    061120 448  0.1+  0.5-    061120 854  0.2+  0.7+
    061119 704  0.0   0.9+    061120 448  0.7+  0.1-    061120 474  0.6-  0.4+
    061119 704  0.3-  0.4-    061120 448  0.1-  0.8-    061120 474  0.3+  0.8-
    061120 H36  1.1+  0.6-    061120 G96  0.2-  0.1-    061120 474  1.3-  0.0
    061120 H36  0.7+  0.3+    061120 G96  0.1+  0.3-    061120 143  0.5+  0.0
    061120 H36  0.4-  0.1-    061120 G96  0.5-  0.2-    061120 143  0.4-  0.5-
    061120 711  0.6-  2.3+    061120 G96  0.2-  0.3-
    061120 711  0.3-  0.8+    061120 854  0.1+  0.9+
    
    Ephemeris:
    2006 WT1                 a,e,i = 2.43, 0.60, 14                  q = 0.9842
    Date    TT    R. A. (2000) Decl.     Delta      r     Elong.  Phase     V
    2006 11 21    21 10.81   +07 55.9    0.158    0.986    84.8    86.0    19.1
    2006 12 01    22 21.61   -03 53.6    0.107    0.987    87.2    86.5    18.3
    2006 12 11    00 53.96   -24 59.7    0.0853   1.005   101.4    73.8    17.3
    2006 12 21    03 50.88   -33 08.8    0.115    1.040   116.1    58.1    17.6
    2006 12 31    05 19.14   -29 59.5    0.173    1.088   123.5    48.9    18.3
    2007 01 10    06 00.48   -25 46.6    0.241    1.148   128.1    42.4    19.0
    2007 01 20    06 24.35   -21 41.7    0.317    1.216   131.2    37.5    19.5
    2007 01 30    06 41.54   -17 48.4    0.400    1.290   132.7    34.2    20.1
    2007 02 09    06 56.20   -14 11.7    0.493    1.368   132.4    32.2    20.6
    2007 02 19    07 10.16   -10 55.9    0.596    1.448   130.5    31.3    21.1
    2007 03 01    07 24.27   -08 05.3    0.710    1.529   127.3    31.0    21.6
    
    Kyle E. Smalley              (C) Copyright 2006 MPC           M.P.E.C. 2006-W37
    

    Read MPEC 2006-W36 Read MPEC 2006-W38


    MPEC number:

    Enter an MPEC number in one of the following forms:

    • 1997-B01 (the full form)
    • J97B01 (the packed version of the full form)
    • B01 (the abbreviated form)